This is the latest recevied weather packets stored in our database for station/object WV5G-13. If no packets are shown the sender has not sent any weather packets the latest 10 day(s).
| Time | Temp. | Humidity | Pressure | Rain* | Wind** | Luminosity | Snow |
|---|---|---|---|---|---|---|---|
| 1777973401 | 20° C | 25% | 1002.2 hPa | 0 mm | - | 0 W/m² | - |
| 1777973098 | 20° C | 26% | 1002.1 hPa | 0 mm | - | 0 W/m² | - |
| 1777972796 | 18.89° C | 29% | 1002.1 hPa | 0 mm | - | 0 W/m² | - |
| 1777972493 | 18.33° C | 30% | 1002.1 hPa | 0 mm | - | 0 W/m² | - |
| 1777972191 | 18.33° C | 29% | 1002 hPa | 0 mm | - | 0 W/m² | - |
| 1777971889 | 18.33° C | 29% | 1002.1 hPa | 0 mm | - | 0 W/m² | - |
| 1777971586 | 18.33° C | 30% | 1001.7 hPa | 0 mm | - | 0 W/m² | - |
| 1777971284 | 18.33° C | 29% | 1001.8 hPa | 0 mm | - | 0 W/m² | - |
| 1777970982 | 17.78° C | 30% | 1001.3 hPa | 0 mm | - | 0 W/m² | - |
| 1777970680 | 17.78° C | 30% | 1001.6 hPa | 0 mm | - | 0 W/m² | - |
| 1777970378 | 17.78° C | 30% | 1001.3 hPa | 0 mm | - | 0 W/m² | - |
| 1777970075 | 18.33° C | 30% | 1001.2 hPa | 0 mm | - | 0 W/m² | - |
| 1777969771 | 18.33° C | 29% | 1001.4 hPa | 0 mm | - | 0 W/m² | - |
| 1777969467 | 18.89° C | 29% | 1001.3 hPa | 0 mm | - | 0 W/m² | - |
| 1777969164 | 18.89° C | 29% | 1001.3 hPa | 0 mm | - | 0 W/m² | - |
| 1777968861 | 18.89° C | 29% | 1001.2 hPa | 0 mm | - | 0 W/m² | - |
| 1777968557 | 18.89° C | 29% | 1001.4 hPa | 0 mm | - | 0 W/m² | - |
| 1777968254 | 18.89° C | 28% | 1001.4 hPa | 0 mm | - | 0 W/m² | - |
| 1777967949 | 18.89° C | 28% | 1001.6 hPa | 0 mm | - | 0 W/m² | - |
| 1777967646 | 19.44° C | 28% | 1001.6 hPa | 0 mm | - | 0 W/m² | - |
| 1777967343 | 19.44° C | 27% | 1001.8 hPa | 0 mm | - | 0 W/m² | - |
| 1777967040 | 19.44° C | 27% | 1002 hPa | 0 mm | - | 0 W/m² | - |
| 1777966737 | 19.44° C | 27% | 1001.8 hPa | 0 mm | - | 0 W/m² | - |
| 1777966430 | 19.44° C | 27% | 1001.8 hPa | 0 mm | - | 0 W/m² | - |
| 1777966127 | 20° C | 26% | 1001.6 hPa | 0 mm | - | 0 W/m² | - |
* Rain latest hour (hover to see other rain measurements)
** Current wind speed in m/s (hover to see current wind gust speed)